Renton, WA
on Wednesday, December 12, 2012

Wednesday
Previous Day Next Day
Daily Summary
 ActualAverage (KSEA)Record (KSEA)
Temperature
Mean Temperature °F 40°F  
Max Temperature 46°F 46°F 60°F (1960)
Min Temperature 42°F 35°F 22°F (1972)
Degree Days
Heating Degree Days 21 25  
Month to date heating degree days 285  
Since 1 July heating degree days 1468  
Cooling Degree Days 0 0  
Month to date cooling degree days 0  
Year to date cooling degree days 189  
Moisture
Dew Point 40°F   
Average Humidity 82    
Maximum Humidity 87    
Minimum Humidity 76    
Precipitation
Precipitation 0.24 in 0.16 in 2.19 in (2010)
Month to date precipitation 2.20  
Year to date precipitation 34.34  
Snow
Snow 0.00 in in 2.60 in (1975)
Month to date snowfall  
Since 1 July snowfall  
Snow Depth in   
Wind
Wind Speed 3 mph   
Max Wind Speed 8 mph   
Max Gust Speed mph   
Visibility 9 miles   
Events Rain   

Key: T is trace of precipitation, MM is missing value
Source: NWS Daily Summary
Time(PST)TemperatureDew PointHumidity Pressure Visibility Wind DirectionWind SpeedGust SpeedPrecipitationEvents Conditions
12:53 AM 46.0°F 39.9°F 79% 29.65 in 10.0 miles SSE 6.9 mph - N/A   Overcast
1:53 AM 46.0°F 39.9°F 79% 29.66 in 10.0 miles SSE 8.1 mph - N/A   Overcast
2:53 AM 46.0°F 39.0°F 76% 29.68 in 10.0 miles SSE 5.8 mph - N/A   Overcast
3:53 AM 46.0°F 39.0°F 76% 29.69 in 10.0 miles SSE 5.8 mph - N/A   Overcast
4:53 AM 45.0°F 39.0°F 80% 29.70 in 8.0 miles SSE 5.8 mph - 0.02 in Rain Light Rain
5:53 AM 45.0°F 39.9°F 82% 29.73 in 5.0 miles Calm Calm - 0.02 in Rain Light Rain
6:53 AM 44.1°F 39.0°F 82% 29.75 in 7.0 miles SSE 5.8 mph - 0.08 in Rain Light Rain
7:53 AM 44.1°F 39.0°F 82% 29.77 in 8.0 miles SSE 4.6 mph - 0.03 in Rain Light Rain
8:33 AM 44.6°F 39.2°F 81% 29.77 in 10.0 miles Calm Calm - 0.01 in Rain Light Rain
8:53 AM 44.1°F 39.9°F 85% 29.80 in 8.0 miles East 3.5 mph - 0.01 in Rain Light Rain
9:53 AM 44.1°F 39.9°F 85% 29.83 in 10.0 miles Calm Calm - 0.00 in   Overcast
10:53 AM 45.0°F 39.9°F 82% 29.85 in 5.0 miles Calm Calm - 0.01 in Rain Light Rain
11:53 AM 45.0°F 39.0°F 80% 29.87 in 9.0 miles Calm Calm - 0.00 in   Overcast
12:00 PM 44.6°F 39.2°F 81% 29.85 in 5.0 miles Calm Calm - 0.00 in Rain Light Rain
12:09 PM 44.6°F 39.2°F 81% 29.85 in 2.5 miles Calm Calm - 0.02 in Rain Rain
12:33 PM 44.6°F 39.2°F 81% 29.86 in 3.0 miles Calm Calm - 0.06 in Rain Light Rain
12:53 PM 45.0°F 39.9°F 82% 29.87 in 4.0 miles South 3.5 mph - 0.07 in Rain Light Rain
1:42 PM 44.6°F 41.0°F 87% 29.87 in 10.0 miles Calm Calm - 0.00 in   Overcast
1:53 PM 46.0°F 41.0°F 83% 29.89 in 10.0 miles Calm Calm - 0.00 in   Overcast
2:13 PM 46.4°F 41.0°F 81% 29.87 in 10.0 miles Calm Calm - N/A   Overcast
2:30 PM 46.4°F 41.0°F 81% 29.88 in 10.0 miles Calm Calm - N/A   Overcast
2:42 PM 46.4°F 41.0°F 81% 29.89 in 10.0 miles East 4.6 mph - N/A   Mostly Cloudy
2:53 PM 46.0°F 41.0°F 83% 29.91 in 10.0 miles Calm Calm - N/A   Mostly Cloudy
2:56 PM 44.6°F 41.0°F 87% 29.89 in 10.0 miles ESE 3.5 mph - N/A   Overcast
3:09 PM 44.6°F 41.0°F 87% 29.90 in 10.0 miles East 3.5 mph - N/A   Overcast
3:53 PM 45.0°F 39.9°F 82% 29.93 in 8.0 miles East 5.8 mph - N/A   Overcast
4:10 PM 44.6°F 39.2°F 81% 29.91 in 10.0 miles East 5.8 mph - N/A   Overcast
4:36 PM 44.6°F 39.2°F 81% 29.92 in 10.0 miles Calm Calm - 0.00 in   Mostly Cloudy
4:50 PM 44.6°F 39.2°F 81% 29.93 in 10.0 miles Calm Calm - 0.00 in   Mostly Cloudy
4:53 PM 45.0°F 39.9°F 82% 29.94 in 10.0 miles Calm Calm - 0.00 in   Mostly Cloudy
5:10 PM 44.6°F 39.2°F 81% 29.93 in 10.0 miles Calm Calm - N/A   Overcast
5:53 PM 45.0°F 39.9°F 82% 29.96 in 10.0 miles Calm Calm - N/A   Overcast
6:42 PM 44.6°F 41.0°F 87% 29.95 in 10.0 miles Calm Calm - N/A   Overcast
6:53 PM 45.0°F 41.0°F 86% 29.97 in 10.0 miles Calm Calm - N/A   Overcast
7:53 PM 45.0°F 41.0°F 86% 30.00 in 8.0 miles Calm Calm - N/A   Overcast
8:53 PM 44.1°F 39.9°F 85% 30.01 in 9.0 miles Calm Calm - N/A   Overcast
9:45 PM 42.8°F 39.2°F 87% 30.01 in 9.0 miles Calm Calm - N/A   Mostly Cloudy
9:53 PM 43.0°F 39.0°F 86% 30.03 in 8.0 miles Calm Calm - N/A   Mostly Cloudy
10:31 PM 42.8°F 37.4°F 81% 30.02 in 10.0 miles Calm Calm - N/A   Mostly Cloudy
10:53 PM 42.1°F 37.9°F 85% 30.04 in 8.0 miles Calm Calm - N/A   Overcast
11:53 PM 42.1°F 37.9°F 85% 30.05 in 10.0 miles Calm Calm - N/A   Overcast
Moon Phase
Dec. 12 Dec. 13 Dec. 20 Dec. 28 Jan. 04
Sunrise:07:47 AM (PST) Moon Rise:06:56 AM (PST)12/12
Sunset:04:17 PM (PST) Moon Set:04:01 PM (PST)12/12

Copyright © 2014 The Weather Underground, Inc.